Regional Weather Roundup
Issued by NWS Upton, NY

Current Version | Previous Version | Graphics & Text | Print | Product List | Glossary Off
Versions: 1 2 3 4 5 6 7 8 9 10 11 12 13 14 15 16 17 18 19 20 21 22 23 24 25 26 27 28 29 30 31 32 33 34 35 36 37 38 39 40 41 42 43 44 45 46 47 48 49 50

000
ASUS41 KOKX 211405
RWROKX

REGIONAL WEATHER ROUNDUP
NATIONAL WEATHER SERVICE NEW YORK NY
1000 AM EDT THU AUG 21 2014

NOTE: "FAIR" INDICATES FEW OR NO CLOUDS BELOW 12,000 FEET WITH NO
SIGNIFICANT WEATHER AND/OR OBSTRUCTIONS TO VISIBILITY.

NYZ071-072-176-178-NJZ106-104-211500-
NEW YORK CITY METRO AREA


CITY           SKY/WX    TMP DP  RH WIND       PRES   REMARKS
CENTRAL PARK   CLOUDY    75  63  66 CALM      30.09S
LAGUARDIA APRT PTSUNNY   76  62  62 CALM      30.06S
KENNEDY INTL   MOSUNNY   77  62  59 S6        30.08S
NEWARK/LIBERTY PTSUNNY   76  61  59 S7        30.06S
BRNX BOT. GARD   N/A     77  63  61 S5        30.09R
TETERBORO      CLOUDY    75  61  61 CALM      30.06S
$$

NYZ177-179-078>081-211500-
LONG ISLAND NEW YORK

CITY           SKY/WX    TMP DP  RH WIND       PRES   REMARKS
FARMINGDALE    PTSUNNY   74  62  66 SE6       30.07S
ISLIP          CLOUDY    73  60  63 E3        30.06S
SHIRLEY        CLOUDY    73  64  73 SE3       30.08S
WESTHAMPTON    CLOUDY    72  63  73 SE5       30.09S
MONTAUK POINT    N/A     70  62  76 VRB5      30.09F
$$

NYZ052-065-067-211500-
HUDSON VALLEY

CITY           SKY/WX    TMP DP  RH WIND       PRES   REMARKS
WHITE PLAINS   PTSUNNY   72  64  76 SE6       30.08R
NEWBURGH       CLOUDY    70  66  88 CALM      30.08S
MONTGOMERY     PTSUNNY   71  64  78 CALM      30.06S
POUGHKEEPSIE   CLOUDY    71  66  84 S3        30.06R
ALBANY         CLOUDY    69  63  81 S10       30.04S
$$

NJZ001-105-106-008-010-013-015-019>022-104-211500-
NEW JERSEY

CITY           SKY/WX    TMP DP  RH WIND       PRES   REMARKS
NEWARK/LIBERTY PTSUNNY   76  61  59 S7        30.06S
TETERBORO      CLOUDY    75  61  61 CALM      30.06S
CALDWELL       PTSUNNY   71  64  78 CALM      30.08S
MORRISTOWN     CLOUDY    72  66  83 CALM      30.08S
SOMERVILLE     SUNNY     75  66  73 S5        30.04F
LINDEN         CLOUDY    80  60  50 S5        30.08S
SUSSEX         CLOUDY    74  63  68 VRB3      30.06S
ANDOVER          N/A     74  60  61 VRB5      30.06F
TRENTON        SUNNY     75  63  66 SW8       30.06S
MILLVILLE      PTSUNNY   76  67  73 SE3       30.06S
ATLANTIC CITY  MOSUNNY   77  65  66 VRB3      30.06F
WRIGHTSTOWN    PTSUNNY   77  64  64 S5        30.04F
TOMS RIVER     SUNNY     77  63  61 CALM      30.07S
BELMAR         SUNNY     75  59  57 SE5       30.08R
$$

PAZ047>061-062-071-211500-
EASTERN PENNSYLVANIA

CITY           SKY/WX    TMP DP  RH WIND       PRES   REMARKS
PHILADELPHIA   PTSUNNY   78  67  68 S3        30.06S
ALLENTOWN      CLOUDY    73  64  73 CALM      30.06F
SCRANTON       CLOUDY    73  63  70 SW8       30.06S
$$

CTZ002-004>006-009-010-012-RIZ004-006-007-MAZ004-011-015-211500-
SOUTHERN NEW ENGLAND
 IN CT

CITY           SKY/WX    TMP DP  RH WIND       PRES   REMARKS
BRADLEY INTL   CLOUDY    70  61  73 S5        30.07R
HARTFORD       CLOUDY    71  62  73 SE3       30.07S
DANBURY        PTSUNNY   72  65  78 SE8       30.09R
WTRBRY/OXFORD  PTSUNNY   70  63  78 S6        30.10S
BRIDGEPORT     PTSUNNY   73  66  78 E8        30.08R
MERIDEN        CLOUDY    72  63  73 CALM      30.08S
NEW HAVEN      CLOUDY    72  63  73 E10       30.07F
CHESTER        FAIR      72  61  68 SE3       30.10S
GROTON         MOSUNNY   71  61  70 E7        30.07F
WILLIMANTIC    CLOUDY    72  60  66 NE6       30.09S

 IN RI

CITY           SKY/WX    TMP DP  RH WIND       PRES   REMARKS
PROVIDENCE     PTSUNNY   70  62  76 NE6       30.10F
BLOCK ISLAND   MOSUNNY   68  63  83 E7        30.09S
WESTERLY       MOSUNNY   73  63  70 VRB6      30.09S

 IN MA

CITY           SKY/WX    TMP DP  RH WIND       PRES   REMARKS
BOSTON         MOSUNNY   68  60  75 E6        30.10F
WORCESTER      CLOUDY    67  54  63 E5        30.11F
WESTFIELD      CLOUDY    69  61  75 CALM      30.08R
PROVINCETOWN   PTSUNNY   70  64  83 MISG      30.10S
NANTUCKET      CLOUDY    72  62  71 NE13      30.08R
$$

ANZ330-335-338-340-345-350-353-355-211500-
COASTAL MARINE OBSERVATIONS


STATION/POSITION TIME  SKY/WX   TEMP    WIND        PRES    VSBY  WAVE
                                AIR SEA DIR/SP/G                  HT/PER
                 (UTC)          (F)     (DEG/KT/KT) (MB)    (MI)  (FT/S)
NY HARB ENTRANCE NOT AVBL
4S FIRE IS       NOT AVBL
23SW MTP         1400            69 69              1018.0          3/ 6
HUDSON CANYON    1400            70 73   30/ 12/ 14 1018.0          3/ 7
EXECUTION ROCKS  1400            75 75   30/  4/  4   N/A
WESTERN LI SOUND 1400            74      CALM  /  2   N/A           0
CENTRAL LI SOUND 1300            69 73  110/ 12/ 14   N/A           1
EASTERN LI SOUND 1300            70 69   60/  8/ 10   N/A
ROBBINS REEF     1400            72     160/  7/  8   N/A
$$


>>>>>>>>>>>>>>>>>>>>>>>>>>>> KEY <<<<<<<<<<<<<<<<<<<<<<<<<<<
>                                                          <
>     SKY/WX - SKY CONDITION/PRESENT WEATHER               <
>     TMP    - TEMPERATURE IN FAHRENHEIT                   <
>     DP     - DEWPOINT IN FAHRENHEIT                      <
>     RH     - RELATIVE HUMIDITY IN PERCENT                <
>     WIND   - DIRECTION AND SPEED IN MPH                  <
>     PRES   - MEAN SEA LEVEL PRESSURE IN INCHES OF HG     <
>     WCI    - WIND CHILL INDEX                            <
>     VSB    - VISIBILITY IN MILES                         <
>     HX     - HEAT INDEX                                  <
>     TC     - TEMPERATURE IN CELSIUS                      <
>     VRB    - VARIABLE WIND DIRECTION                     <
>                                                          <
>>>>>>>>>>>>>>>>>>>>>>>>>>>> KEY <<<<<<<<<<<<<<<<<<<<<<<<<<<




USA.gov is the U.S. government's official web portal to all federal, state and local government web resources and services.